STARLINK-35406, 65795

Orbit data source: Space-Track

STARLINK-35406, 65795 is a payload satellite owned by SpaceX/Seattle (US) in SSO that was launched on Fri, 26 Sep 2025 UTC via an FALCON 9 launch vehicle from the Air Force Western Test Range (AFWTR). Payload-class satellites include a variety of spacecraft equipped with specific instruments for various scientific and technological missions. These include communications satellites like Starlink; space stations such as the ISS; scientific satellites like the Hubble; Earth observation satellites from companies like Planet Labs, Umbra, and HawkEye 360; GPS; miniature CubeSats for education and research; and military/defense satellites.

Loading next visibility...
Identifier
65795, 2025-218E
Orbit
SSO
Country
Flag of USUS
Related business
Manufacturer
SpaceX/Seattle
Mission
Operational Commercial Communications
Bus & Motor
STARLINK V2MO, Unknown motor
Mass
575 kg wet, ~530 kg dry
Launch date (UTC)
2025-09-26 (1 month ago)
Launch vehicle
FALCON 9
Launch site
Air Force Western Test Range (AFWTR)
Object type
Payload
Rocket body
Debris
Shape & HBR
Box + 2 Pan, 17.7 m
Radar Cross Section
36.964 m²

Expand to show TLE details & history
Last TLE update: 2 days ago

TLE from 2 days ago
0 STARLINK-35406
1 65795U 25218E   25312.57441500  .00011507  00000-0  78278-3 0  9998
2 65795  97.6028 173.5410 0001858  89.7699 270.3741 15.06480162  6741
Epoch: 2025-11-08T13:47Z
TLE epoch observation values (Epoch: 2025-11-08T13:47:09.455Z)
Latitude
-0.00001°
Longitude
-81.25047°
Altitude
550.024 km
Speed
7.587 km/s
True Right ascension
11h 34m 09s
True Declination
0° 00' 00"
Sunlit
Object was in daylight at epoch
Visualization orbit readout
Latitude
Unknown
Longitude
Unknown
Altitude
Unknown
Speed
Unknown
Apparent Right ascension
Unknown
Apparent Declination
Unknown
Sunlit
N/A
Visualization observer readout
Local Sidereal Time
03:00:04
Azimuth
Unknown
Elevation
Unknown
Doppler factor
Unknown
Orbital elements
Apogee altitude
545.244 km
Perigee altitude
542.672 km
Semi-major axis
6,922.095 km
Eccentricity
0.00019
Inclination
97.6028°
RAAN
173.541°
Arg. of periapsis
89.7699°
True anomaly
270.35281°
Mean anomaly
270.3741°
Eccentric anomaly
270.36345°
Mean motion
3.76866 °/min
Orbital period
95.52 mins
BSTAR
0.00078278
Loading maneuver chart data...
Computing Atmospheric mass density...
Loading historical data...
Loading historical data...
Loading historical data...
Loading historical data...
Loading historical data...
Loading historical data...
Loading historical data...

Documentation

Showing up to 5 results
|